[[{"header":{"parameterUnit":"m.s-1","parameterCategory":1,"la1":30.2991,"la2":30.254,"lo1":-89.0895,"lo2":-89.0444,"dy":0.0017,"dx":0.0017,"nx":28,"ny":28,"refTime":"2024-07-29T21:00:00:Z","depth":0,"parameterNumber":2,"parameterNumberName":"U-component_of_WINDS"},"data":[0,0,0,0,0,0,0,0,0,0,0,0,0,0,0,0,0,0,0,0,0,0,0,0,0,0,0,0,0,0,0,0,0,0,0,0,0,0,0,0,0,0,0,0,0,0,0,0,0,0,0,0,0,0,0,0,0,0,3.5283,3.5285,0,3.5467,3.5469,3.5471,3.5452,3.5449,3.5446,3.5443,3.5636,3.5644,3.5651,0,0,0,0,0,0,0,0,0,0,0,0,0,3.4915,3.4922,3.5282,3.5285,3.5287,3.5467,3.5469,3.5472,3.5452,3.5449,3.5445,3.5442,3.5634,3.5643,3.5652,0,0,0,0,0,0,0,0,0,0,0,0,0,3.5085,3.4924,3.5282,3.5299,3.5302,3.5466,3.5469,3.5473,3.5453,3.5449,3.5444,3.544,3.563,3.5642,3.5653,3.5814,0,0,3.5689,3.5695,0,0,0,0,0,0,0,0,3.5075,3.5098,3.5294,3.5298,3.5302,3.5432,3.541,3.5587,3.5454,3.5396,3.5443,3.5438,3.5572,3.5588,3.5633,3.5823,3.5831,3.569,3.5698,3.5703,3.5706,0,0,0,0,0,0,0,3.5063,3.509,3.5356,3.5297,3.5302,3.5298,3.5317,3.5444,3.5506,3.5401,3.54,3.5422,3.5573,3.5621,3.5637,3.5834,3.569,3.5701,3.5708,3.5712,3.6163,3.6167,0,0,0,0,0,0,3.5047,3.508,3.535,3.5361,3.5175,3.5308,3.533,3.5395,3.5505,3.5517,3.5425,3.542,3.5603,3.5623,3.5644,3.5837,3.5703,3.5714,3.572,3.6158,3.6164,3.6169,0,0,0,0,0,0,3.5039,3.5071,3.5342,3.5221,3.5255,3.5319,3.5392,3.5401,3.5449,3.5523,3.5535,3.5463,3.5601,3.5627,3.5771,3.5843,3.5719,3.573,3.6152,3.6159,3.6166,3.6225,0,0,0,0,0,0,3.5029,3.5069,3.513,3.5222,3.5261,3.5466,3.5397,3.5407,3.5468,3.5464,3.5561,3.5574,3.5599,3.5753,3.5782,3.5857,3.5739,3.6146,3.6155,3.6164,3.6217,3.6234,3.6248,0,0,0,0,0,3.5016,3.514,3.5133,3.5166,3.5339,3.547,3.5493,3.5519,3.5474,3.5536,3.5584,3.557,3.5831,3.5768,3.5801,3.588,3.6141,3.6153,3.6163,3.621,3.623,3.6247,0,0,0,0,0,0,3.5057,3.5153,3.5146,3.5304,3.5379,3.5466,3.5546,3.554,3.563,3.5621,3.5651,3.5673,3.5818,3.5864,3.5792,3.604,3.598,3.5998,3.6005,3.6024,3.604,3.6025,3.5749,0,0,0,0,0,3.5084,3.5181,3.526,3.5392,3.543,3.5481,3.554,3.5553,3.5632,3.5664,3.5723,3.5801,3.59,3.5965,3.6061,3.6224,3.6244,3.6294,3.631,3.6322,3.6337,3.6425,3.6448,3.6205,3.6205,3.6205,0,0,3.5141,3.5206,3.5266,3.5402,3.5462,3.5562,3.5508,3.5618,3.5692,3.5681,3.5819,3.5865,3.5955,3.6108,3.6179,3.6151,3.6409,3.6336,3.6345,3.6354,3.6439,3.6461,3.6482,3.6213,3.6211,3.621,0,0,3.5297,3.5356,3.5471,3.5532,3.5622,3.5655,3.5683,3.5771,3.58,3.5939,3.5932,3.6023,3.6193,3.6257,3.6311,3.6489,3.6479,3.652,3.66,3.6685,3.6704,3.6721,3.6783,3.6805,3.6535,3.6535,3.6535,0,3.5358,3.5508,3.5532,3.5641,3.5701,3.5694,3.581,3.5868,3.5986,3.6027,3.5994,3.6206,3.6266,3.6433,3.6476,3.6522,3.6554,3.6508,3.6699,3.6717,3.6733,3.6792,3.6816,3.6539,3.6538,3.6538,3.6538,0,3.5577,3.5681,3.5763,3.5875,3.5944,3.6057,3.6098,3.6165,3.6172,3.6208,3.635,3.6421,3.653,3.6571,3.658,3.6739,3.6719,3.6692,3.6632,3.676,3.6816,3.6839,3.6545,3.6543,3.6542,3.6541,0,0,3.5764,3.5885,3.5915,3.5965,3.6063,3.6144,3.6257,3.6361,3.6418,3.6499,3.6593,3.6737,3.6712,3.6774,3.679,3.6865,3.6999,3.683,3.6832,3.6857,3.7178,3.7196,3.7222,3.6994,3.6998,3.7002,3.717,0,3.5928,3.6125,3.6149,3.6324,3.642,3.6414,3.6511,3.6582,3.6619,3.6707,3.6748,3.6849,3.6809,3.6846,3.692,3.6967,3.7064,3.6956,3.7082,3.7086,3.7058,3.7252,3.7272,3.7426,3.7192,3.7196,3.7198,0,3.6146,3.6231,3.6415,3.6498,3.6539,3.6626,3.6723,3.6807,3.6887,3.6909,3.6977,3.6983,3.7099,3.7034,3.7194,3.712,3.7173,3.7204,3.721,3.7222,3.7149,3.7267,3.7477,3.7499,3.7234,3.7231,3.7228,0,3.6262,3.6422,3.6553,3.6596,3.6696,3.6757,3.6802,3.6878,3.6939,3.7024,3.7064,3.7162,3.7216,3.7292,3.7325,3.7275,3.7482,3.7421,3.7503,3.7502,3.7546,3.7543,3.7766,3.7583,3.7582,3.7582,3.7581,0,3.6442,3.6554,3.6605,3.6686,3.6811,3.6838,3.6962,3.7005,3.7072,3.716,3.7162,3.7245,3.7283,3.7372,3.7399,3.7526,3.7551,3.7571,3.7577,3.757,3.7568,3.7605,3.7594,3.7588,3.7587,3.7585,3.7584,0,3.6592,3.6631,3.6772,3.6855,3.6879,3.6967,3.7039,3.7116,3.7152,3.7263,3.7291,3.7348,3.7452,3.7492,3.7621,3.7638,3.7785,3.7783,3.7757,3.7758,3.7837,3.7829,3.8091,3.8126,3.7921,3.7923,3.7925,0,3.6704,3.679,3.6881,3.6939,3.6986,3.7081,3.7142,3.7172,3.7236,3.7332,3.7398,3.7502,3.7587,3.7754,3.7807,3.7905,3.7904,3.7989,3.7919,3.7909,3.7904,3.7898,3.7906,3.8002,3.8004,3.8006,3.8007,0,3.6897,3.6912,3.6999,3.7094,3.7166,3.7243,3.7317,3.7365,3.7406,3.7478,3.7584,3.7649,3.7779,3.7882,3.7982,3.8029,3.8026,3.8029,3.8053,3.8047,3.8028,3.8037,3.7791,3.8023,3.8021,3.802,3.8019,3.8019,3.7031,3.7106,3.7181,3.7278,3.7337,3.7406,3.7482,3.7526,3.7614,3.7721,3.7734,3.7847,3.7924,3.8058,3.8109,3.8199,3.8176,3.8211,3.822,3.8228,3.8232,3.8014,3.8218,3.8217,3.8217,3.8217,3.8216,0,3.7222,3.727,3.7359,3.7462,3.7538,3.7526,3.7607,3.7672,3.7771,3.7843,3.7925,3.8047,3.8146,3.8206,3.8306,3.8366,3.8367,3.8391,3.8386,3.8397,3.8248,3.8216,3.8389,3.8389,3.8389,3.8389,3.8389,3.8389,3.7331,3.7457,3.748,3.7635,3.7682,3.7792,3.7839,3.7902,3.7959,3.8094,3.8176,3.8214,3.8281,3.8385,3.8476,3.8491,3.8527,3.8553,3.8566,3.8426,3.8408,3.8391,3.8361,3.8561,3.8561,3.8708,3.8709,3.871]},{"header":{"parameterUnit":"m.s-1","parameterCategory":1,"la1":30.2991,"la2":30.254,"lo1":-89.0895,"lo2":-89.0444,"dy":0.0017,"dx":0.0017,"nx":28,"ny":28,"refTime":"2024-07-29T21:00:00:Z","depth":0,"parameterNumber":3,"parameterNumberName":"V-component_of_WINDS"},"data":[0,0,0,0,0,0,0,0,0,0,0,0,0,0,0,0,0,0,0,0,0,0,0,0,0,0,0,0,0,0,0,0,0,0,0,0,0,0,0,0,0,0,0,0,0,0,0,0,0,0,0,0,0,0,0,0,0,0,2.6214,2.6215,0,2.6285,2.6286,2.6287,2.6262,2.6261,2.6259,2.6258,2.6328,2.6332,2.6335,0,0,0,0,0,0,0,0,0,0,0,0,0,2.6053,2.6056,2.6214,2.6215,2.6216,2.6285,2.6286,2.6287,2.6263,2.6261,2.6259,2.6257,2.6327,2.6331,2.6335,0,0,0,0,0,0,0,0,0,0,0,0,0,2.6123,2.6057,2.6214,2.6212,2.6212,2.6285,2.6286,2.6287,2.6263,2.6261,2.6258,2.6256,2.6326,2.6331,2.6336,2.6414,0,0,2.6351,2.6353,0,0,0,0,0,0,0,0,2.612,2.6129,2.6211,2.6212,2.6213,2.6262,2.6255,2.6329,2.6264,2.6244,2.6258,2.6255,2.6308,2.6314,2.6333,2.6417,2.642,2.6352,2.6355,2.6357,2.6358,0,0,0,0,0,0,0,2.6115,2.6126,2.6242,2.6212,2.6213,2.6206,2.6214,2.6269,2.6288,2.6245,2.6244,2.6252,2.6308,2.6328,2.6334,2.6421,2.6351,2.6356,2.6359,2.6361,2.6571,2.6573,0,0,0,0,0,0,2.611,2.6122,2.624,2.6244,2.616,2.6211,2.6219,2.6249,2.6287,2.6291,2.6254,2.6251,2.6321,2.6329,2.6337,2.643,2.6357,2.6361,2.6364,2.6568,2.6571,2.6574,0,0,0,0,0,0,2.6106,2.612,2.6237,2.6183,2.6197,2.6216,2.625,2.6251,2.6272,2.6294,2.6297,2.6272,2.6319,2.633,2.6394,2.6432,2.6364,2.6368,2.6565,2.6569,2.6573,2.6617,0,0,0,0,0,0,2.6102,2.6119,2.615,2.6184,2.62,2.6295,2.6252,2.6255,2.6281,2.6277,2.6311,2.6315,2.6318,2.6387,2.6399,2.6438,2.6372,2.6562,2.6567,2.6571,2.6612,2.6622,2.663,0,0,0,0,0,2.6096,2.616,2.6152,2.6166,2.6239,2.6297,2.6306,2.6309,2.6284,2.6314,2.6328,2.6314,2.6426,2.6394,2.6408,2.6448,2.6559,2.6565,2.6571,2.6608,2.662,2.663,0,0,0,0,0,0,2.613,2.6164,2.6156,2.6232,2.6262,2.6293,2.6331,2.6322,2.6359,2.6354,2.6355,2.6363,2.643,2.6445,2.6409,2.6524,2.6489,2.6497,2.6512,2.6523,2.6532,2.6527,2.6376,0,0,0,0,0,2.6146,2.6191,2.6218,2.6282,2.6298,2.6312,2.6337,2.6337,2.6367,2.638,2.6399,2.6428,2.647,2.6497,2.6537,2.6614,2.662,2.6648,2.6657,2.6664,2.6672,2.6712,2.6724,2.6593,2.6593,2.6593,0,0,2.618,2.6204,2.6232,2.629,2.6313,2.6358,2.6323,2.6373,2.6406,2.6387,2.645,2.6464,2.6497,2.6568,2.66,2.6583,2.6709,2.6671,2.6677,2.6681,2.6719,2.6732,2.6743,2.6597,2.6596,2.6595,0,0,2.6265,2.6288,2.6344,2.6368,2.6403,2.6412,2.6425,2.6457,2.6467,2.6529,2.6516,2.6555,2.6627,2.665,2.6672,2.6764,2.6752,2.6777,2.6823,2.6863,2.6873,2.6882,2.6915,2.6927,2.6784,2.6784,2.6784,0,2.6303,2.6372,2.6374,2.6425,2.645,2.6435,2.6491,2.6513,2.656,2.6577,2.6557,2.6646,2.6667,2.6743,2.6765,2.6783,2.6797,2.6773,2.6872,2.6881,2.689,2.692,2.6933,2.6787,2.6787,2.6786,2.6786,0,2.6416,2.6464,2.6504,2.655,2.6579,2.6632,2.6642,2.6671,2.6668,2.6678,2.6741,2.6766,2.6809,2.6827,2.6824,2.6902,2.689,2.6871,2.6835,2.6905,2.6934,2.6946,2.6791,2.679,2.6789,2.6789,0,0,2.6526,2.6571,2.6585,2.6605,2.6642,2.6679,2.673,2.6774,2.6798,2.683,2.6873,2.6933,2.6915,2.694,2.6939,2.6974,2.7044,2.695,2.6951,2.6967,2.7131,2.7145,2.7159,2.7036,2.7038,2.704,2.7128,0,2.6614,2.6705,2.6708,2.6792,2.6835,2.6821,2.6865,2.6892,2.6903,2.694,2.6951,2.6994,2.6968,2.6982,2.7016,2.7029,2.7077,2.7022,2.7075,2.7077,2.7068,2.7174,2.719,2.7271,2.7139,2.7141,2.7142,0,2.6729,2.6765,2.6853,2.6882,2.6901,2.6941,2.698,2.7017,2.7046,2.7051,2.7078,2.7072,2.7123,2.7085,2.7155,2.7117,2.7139,2.7148,2.7151,2.7157,2.7114,2.7182,2.7297,2.731,2.716,2.7159,2.7158,0,2.68,2.687,2.6931,2.6948,2.6985,2.7013,2.7029,2.7057,2.7082,2.7116,2.7132,2.7171,2.7193,2.7222,2.7226,2.7198,2.7296,2.7259,2.7301,2.7301,2.7323,2.7322,2.7444,2.7337,2.7336,2.7336,2.7336,0,2.6898,2.6952,2.6963,2.7001,2.7061,2.7063,2.7121,2.7135,2.7159,2.7198,2.7188,2.7225,2.7228,2.7265,2.7268,2.7325,2.7335,2.734,2.734,2.7341,2.7341,2.7355,2.735,2.7339,2.7339,2.7338,2.7338,0,2.6987,2.6997,2.7063,2.7091,2.71,2.7143,2.7167,2.7202,2.7211,2.7261,2.7272,2.7286,2.733,2.7336,2.7387,2.7389,2.7458,2.7452,2.7448,2.7447,2.7489,2.7485,2.7625,2.7643,2.7524,2.7526,2.7527,0,2.705,2.7091,2.7124,2.715,2.7168,2.7209,2.7235,2.7238,2.7265,2.7301,2.7332,2.7374,2.7408,2.7478,2.7492,2.753,2.7526,2.7572,2.7531,2.7531,2.7526,2.7524,2.7527,2.758,2.7581,2.7582,2.7583,0,2.7159,2.7161,2.7199,2.7239,2.727,2.7301,2.7331,2.7352,2.7358,2.7389,2.7434,2.746,2.7512,2.7554,2.7592,2.7607,2.7596,2.7596,2.7607,2.7609,2.7605,2.7607,2.7469,2.7593,2.7592,2.7591,2.759,2.759,2.7236,2.7272,2.7301,2.7343,2.7365,2.7393,2.7427,2.744,2.7478,2.7521,2.752,2.7568,2.7595,2.7645,2.7663,2.77,2.7685,2.7702,2.7706,2.7711,2.7715,2.7599,2.7707,2.7707,2.7706,2.7706,2.7706,0,2.7345,2.7362,2.7401,2.7443,2.7476,2.7463,2.7494,2.7522,2.7566,2.7592,2.7625,2.7676,2.7716,2.7733,2.7772,2.7799,2.7794,2.7809,2.7807,2.781,2.7726,2.7712,2.7811,2.7811,2.7811,2.7811,2.7811,2.7811,2.7405,2.7465,2.747,2.754,2.7557,2.7605,2.7624,2.7649,2.767,2.7727,2.776,2.7771,2.7793,2.7834,2.7869,2.7873,2.7888,2.7905,2.7906,2.7827,2.7816,2.7806,2.7793,2.7908,2.7908,2.7987,2.7988,2.7988]}]]